Time,TemperatureF,DewpointF,PressureIn,WindDirection,WindDirectionDegrees,WindSpeedMPH,WindSpeedGustMPH,Humidity,HourlyPrecipIn,Conditions,Clouds,dailyrainin,SoftwareType,DateUTC
2013-11-23 00:02:00,20.7,4.5,24.51,South,180,15.0,16.0,49,0.00,,,0.00,meteohub,2013-11-23 07:02:00,
2013-11-23 00:07:00,20.7,4.5,24.51,South,180,15.0,16.0,49,0.00,,,0.00,meteohub,2013-11-23 07:07:00,
2013-11-23 00:12:00,20.8,4.3,24.51,South,180,17.0,17.0,48,0.00,,,0.00,meteohub,2013-11-23 07:12:00,
2013-11-23 00:17:00,20.7,4.5,24.51,South,180,17.0,17.0,49,0.00,,,0.00,meteohub,2013-11-23 07:17:00,
2013-11-23 00:22:00,20.1,4.8,24.51,South,180,17.0,17.0,51,0.00,,,0.00,meteohub,2013-11-23 07:22:00,
2013-11-23 00:27:00,19.9,5.2,24.51,South,180,17.0,17.0,52,0.00,,,0.00,meteohub,2013-11-23 07:27:00,
2013-11-23 00:32:00,19.8,4.6,24.51,South,180,16.0,17.0,51,0.00,,,0.00,meteohub,2013-11-23 07:32:00,
2013-11-23 00:37:00,19.8,5.0,24.51,South,180,17.0,17.0,52,0.00,,,0.00,meteohub,2013-11-23 07:37:00,
2013-11-23 00:42:00,19.8,5.0,24.51,South,180,17.0,17.0,52,0.00,,,0.00,meteohub,2013-11-23 07:42:00,
2013-11-23 00:47:00,20.1,4.8,24.51,South,180,17.0,17.0,51,0.00,,,0.00,meteohub,2013-11-23 07:47:00,
2013-11-23 00:52:00,19.9,4.6,24.51,South,180,17.0,17.0,51,0.00,,,0.00,meteohub,2013-11-23 07:52:00,
2013-11-23 00:57:00,19.8,5.0,24.51,South,180,16.0,17.0,52,0.00,,,0.00,meteohub,2013-11-23 07:57:00,
2013-11-23 01:02:00,19.8,4.6,24.51,South,180,15.0,17.0,51,0.00,,,0.00,meteohub,2013-11-23 08:02:00,
2013-11-23 01:07:00,19.8,4.6,24.51,South,180,15.0,17.0,51,0.00,,,0.00,meteohub,2013-11-23 08:07:00,
2013-11-23 01:12:00,20.3,4.6,24.51,South,180,15.0,17.0,50,0.00,,,0.00,meteohub,2013-11-23 08:12:00,
2013-11-23 01:17:00,19.9,4.6,24.51,South,180,17.0,17.0,51,0.00,,,0.00,meteohub,2013-11-23 08:17:00,
2013-11-23 01:22:00,20.3,4.6,24.51,South,180,15.0,17.0,50,0.00,,,0.00,meteohub,2013-11-23 08:22:00,
2013-11-23 01:27:00,20.1,4.8,24.51,South,180,14.0,17.0,51,0.00,,,0.00,meteohub,2013-11-23 08:27:00,
2013-11-23 01:32:00,20.3,5.0,24.51,South,180,16.0,17.0,51,0.00,,,0.00,meteohub,2013-11-23 08:32:00,
2013-11-23 01:37:00,20.7,5.0,24.51,South,180,15.0,17.0,50,0.00,,,0.00,meteohub,2013-11-23 08:37:00,
2013-11-23 01:42:00,20.5,5.2,24.51,South,180,15.0,17.0,51,0.00,,,0.00,meteohub,2013-11-23 08:42:00,
2013-11-23 01:47:00,20.5,5.2,24.51,South,180,16.0,17.0,51,0.00,,,0.00,meteohub,2013-11-23 08:47:00,
2013-11-23 01:52:00,20.1,4.8,24.51,South,180,16.0,17.0,51,0.00,,,0.00,meteohub,2013-11-23 08:52:00,
2013-11-23 01:57:00,20.1,5.4,24.51,South,180,17.0,18.0,52,0.00,,,0.00,meteohub,2013-11-23 08:57:00,
2013-11-23 02:02:00,19.9,5.2,24.51,South,180,18.0,18.0,52,0.00,,,0.00,meteohub,2013-11-23 09:02:00,
2013-11-23 02:07:00,19.9,5.2,24.51,South,180,18.0,18.0,52,0.00,,,0.00,meteohub,2013-11-23 09:07:00,
2013-11-23 02:12:00,19.9,5.2,24.51,South,180,17.0,18.0,52,0.00,,,0.00,meteohub,2013-11-23 09:12:00,
2013-11-23 02:17:00,19.9,5.2,24.51,South,180,17.0,18.0,52,0.00,,,0.00,meteohub,2013-11-23 09:17:00,
2013-11-23 02:22:00,19.9,5.2,24.51,South,180,16.0,18.0,52,0.00,,,0.00,meteohub,2013-11-23 09:22:00,
2013-11-23 02:27:00,19.8,5.4,24.51,South,180,16.0,18.0,53,0.00,,,0.00,meteohub,2013-11-23 09:27:00,
2013-11-23 02:32:00,19.6,5.2,24.51,South,180,17.0,17.0,53,0.00,,,0.00,meteohub,2013-11-23 09:32:00,
2013-11-23 02:37:00,19.6,5.2,24.51,South,180,17.0,17.0,53,0.00,,,0.00,meteohub,2013-11-23 09:37:00,
2013-11-23 02:42:00,19.6,5.2,24.51,South,180,15.0,17.0,53,0.00,,,0.00,meteohub,2013-11-23 09:42:00,
2013-11-23 02:47:00,20.3,5.5,24.51,South,180,17.0,17.0,52,0.00,,,0.00,meteohub,2013-11-23 09:47:00,
2013-11-23 02:52:00,20.5,5.2,24.51,South,180,17.0,18.0,51,0.00,,,0.00,meteohub,2013-11-23 09:52:00,
2013-11-23 02:57:00,20.1,5.4,24.51,South,180,17.0,18.0,52,0.00,,,0.00,meteohub,2013-11-23 09:57:00,
2013-11-23 03:02:00,20.1,4.8,24.51,South,180,17.0,18.0,51,0.00,,,0.00,meteohub,2013-11-23 10:02:00,
2013-11-23 03:07:00,20.1,4.8,24.51,South,180,17.0,17.0,51,0.00,,,0.00,meteohub,2013-11-23 10:07:00,
2013-11-23 03:12:00,20.1,5.4,24.51,South,180,19.0,20.0,52,0.00,,,0.00,meteohub,2013-11-23 10:12:00,
2013-11-23 03:17:00,19.6,5.2,24.50,South,180,17.0,20.0,53,0.00,,,0.00,meteohub,2013-11-23 10:17:00,
2013-11-23 03:22:00,19.8,5.0,24.50,South,180,17.0,20.0,52,0.00,,,0.00,meteohub,2013-11-23 10:22:00,
2013-11-23 03:27:00,19.6,4.8,24.50,South,180,17.0,19.0,52,0.00,,,0.00,meteohub,2013-11-23 10:27:00,
2013-11-23 03:32:00,19.8,5.0,24.51,South,180,18.0,19.0,52,0.00,,,0.00,meteohub,2013-11-23 10:32:00,
2013-11-23 03:37:00,20.1,4.8,24.51,South,180,17.0,19.0,51,0.00,,,0.00,meteohub,2013-11-23 10:37:00,
2013-11-23 03:42:00,20.3,5.0,24.51,South,180,18.0,19.0,51,0.00,,,0.00,meteohub,2013-11-23 10:42:00,
2013-11-23 03:47:00,20.3,5.0,24.51,South,180,17.0,19.0,51,0.00,,,0.00,meteohub,2013-11-23 10:47:00,
2013-11-23 03:52:00,20.3,4.6,24.50,South,180,19.0,19.0,50,0.00,,,0.00,meteohub,2013-11-23 10:52:00,
2013-11-23 03:57:00,20.5,4.8,24.50,South,180,19.0,20.0,50,0.00,,,0.00,meteohub,2013-11-23 10:57:00,
2013-11-23 04:02:00,20.7,5.0,24.50,South,180,20.0,20.0,50,0.00,,,0.00,meteohub,2013-11-23 11:02:00,
2013-11-23 04:07:00,20.7,5.0,24.49,South,180,20.0,20.0,50,0.00,,,0.00,meteohub,2013-11-23 11:07:00,
2013-11-23 04:12:00,20.7,4.5,24.49,South,180,19.0,21.0,49,0.00,,,0.00,meteohub,2013-11-23 11:12:00,
2013-11-23 04:17:00,20.8,4.6,24.49,South,180,18.0,21.0,49,0.00,,,0.00,meteohub,2013-11-23 11:17:00,
2013-11-23 04:22:00,21.0,4.5,24.49,South,180,17.0,21.0,48,0.00,,,0.00,meteohub,2013-11-23 11:22:00,
2013-11-23 04:27:00,21.2,4.6,24.49,South,180,19.0,20.0,48,0.00,,,0.00,meteohub,2013-11-23 11:27:00,
2013-11-23 04:32:00,21.2,4.6,24.49,South,180,18.0,19.0,48,0.00,,,0.00,meteohub,2013-11-23 11:32:00,
2013-11-23 04:37:00,21.2,4.6,24.49,South,180,19.0,19.0,48,0.00,,,0.00,meteohub,2013-11-23 11:37:00,
2013-11-23 04:42:00,21.2,4.6,24.49,South,180,17.0,19.0,48,0.00,,,0.00,meteohub,2013-11-23 11:42:00,
2013-11-23 04:47:00,21.0,4.8,24.49,South,180,19.0,19.0,49,0.00,,,0.00,meteohub,2013-11-23 11:47:00,
2013-11-23 04:52:00,21.4,4.8,24.49,South,180,20.0,20.0,48,0.00,,,0.00,meteohub,2013-11-23 11:52:00,
2013-11-23 04:57:00,21.4,4.8,24.49,South,180,18.0,20.0,48,0.00,,,0.00,meteohub,2013-11-23 11:57:00,
2013-11-23 05:02:00,21.2,4.6,24.49,South,180,17.0,20.0,48,0.00,,,0.00,meteohub,2013-11-23 12:02:00,
2013-11-23 05:07:00,21.2,4.6,24.49,South,180,17.0,20.0,48,0.00,,,0.00,meteohub,2013-11-23 12:07:00,
2013-11-23 05:12:00,21.4,4.3,24.49,South,180,14.0,19.0,47,0.00,,,0.00,meteohub,2013-11-23 12:12:00,
2013-11-23 05:17:00,21.2,5.0,24.49,South,180,16.0,17.0,49,0.00,,,0.00,meteohub,2013-11-23 12:17:00,
2013-11-23 05:22:00,20.8,4.6,24.49,South,180,17.0,17.0,49,0.00,,,0.00,meteohub,2013-11-23 12:22:00,
2013-11-23 05:27:00,20.3,5.0,24.48,South,180,18.0,20.0,51,0.00,,,0.00,meteohub,2013-11-23 12:27:00,
2013-11-23 05:32:00,20.5,5.2,24.48,South,180,17.0,20.0,51,0.00,,,0.00,meteohub,2013-11-23 12:32:00,
2013-11-23 05:37:00,20.5,4.8,24.48,South,180,17.0,20.0,50,0.00,,,0.00,meteohub,2013-11-23 12:37:00,
2013-11-23 05:42:00,20.7,5.0,24.48,South,180,17.0,18.0,50,0.00,,,0.00,meteohub,2013-11-23 12:42:00,
2013-11-23 05:47:00,20.7,5.0,24.48,South,180,18.0,18.0,50,0.00,,,0.00,meteohub,2013-11-23 12:47:00,
2013-11-23 05:52:00,20.8,4.6,24.48,South,180,17.0,18.0,49,0.00,,,0.00,meteohub,2013-11-23 12:52:00,
2013-11-23 05:57:00,21.0,4.8,24.48,South,180,17.0,20.0,49,0.00,,,0.00,meteohub,2013-11-23 12:57:00,
2013-11-23 06:02:00,20.8,5.2,24.48,South,180,18.0,21.0,50,0.00,,,0.00,meteohub,2013-11-23 13:02:00,
2013-11-23 06:07:00,20.8,5.2,24.48,South,180,18.0,21.0,50,0.00,,,0.00,meteohub,2013-11-23 13:07:00,
2013-11-23 06:12:00,20.3,5.0,24.48,South,180,17.0,21.0,51,0.00,,,0.00,meteohub,2013-11-23 13:12:00,
2013-11-23 06:17:00,20.3,5.5,24.47,South,180,21.0,21.0,52,0.00,,,0.00,meteohub,2013-11-23 13:17:00,
2013-11-23 06:22:00,19.9,5.5,24.47,South,180,20.0,21.0,53,0.00,,,0.00,meteohub,2013-11-23 13:22:00,
2013-11-23 06:27:00,20.1,5.4,24.47,South,180,21.0,21.0,52,0.00,,,0.00,meteohub,2013-11-23 13:27:00,
2013-11-23 06:32:00,20.1,5.4,24.47,South,180,20.0,21.0,52,0.00,,,0.00,meteohub,2013-11-23 13:32:00,
2013-11-23 06:37:00,20.1,5.7,24.46,South,180,21.0,21.0,53,0.00,,,0.00,meteohub,2013-11-23 13:37:00,
2013-11-23 06:42:00,20.3,5.5,24.46,South,180,20.0,21.0,52,0.00,,,0.00,meteohub,2013-11-23 13:42:00,
2013-11-23 06:47:00,20.8,5.5,24.47,South,180,22.0,22.0,51,0.00,,,0.00,meteohub,2013-11-23 13:47:00,
2013-11-23 06:52:00,20.8,5.5,24.46,South,180,21.0,22.0,51,0.00,,,0.00,meteohub,2013-11-23 13:52:00,
2013-11-23 06:57:00,20.5,5.7,24.46,South,180,21.0,22.0,52,0.00,,,0.00,meteohub,2013-11-23 13:57:00,
2013-11-23 07:02:00,20.5,5.7,24.46,South,180,21.0,22.0,52,0.00,,,0.00,meteohub,2013-11-23 14:02:00,
2013-11-23 07:07:00,20.5,5.7,24.46,South,180,21.0,22.0,52,0.00,,,0.00,meteohub,2013-11-23 14:07:00,
2013-11-23 07:12:00,20.7,5.9,24.46,South,180,21.0,22.0,52,0.00,,,0.00,meteohub,2013-11-23 14:12:00,
2013-11-23 07:17:00,20.3,5.5,24.46,South,180,21.0,23.0,52,0.00,,,0.00,meteohub,2013-11-23 14:17:00,
2013-11-23 07:22:00,19.4,5.5,24.46,South,180,21.0,24.0,54,0.00,,,0.00,meteohub,2013-11-23 14:22:00,
2013-11-23 07:27:00,20.3,5.9,24.46,South,180,24.0,25.0,53,0.00,,,0.00,meteohub,2013-11-23 14:27:00,
2013-11-23 07:32:00,19.8,5.7,24.46,South,180,23.0,25.0,54,0.00,,,0.00,meteohub,2013-11-23 14:32:00,
2013-11-23 07:37:00,20.5,5.7,24.46,South,180,23.0,25.0,52,0.00,,,0.00,meteohub,2013-11-23 14:37:00,
2013-11-23 07:42:00,19.8,5.4,24.46,South,180,23.0,25.0,53,0.00,,,0.00,meteohub,2013-11-23 14:42:00,
2013-11-23 07:47:00,20.3,5.9,24.46,South,180,22.0,25.0,53,0.00,,,0.00,meteohub,2013-11-23 14:47:00,
2013-11-23 07:52:00,20.8,5.9,24.46,South,180,21.0,25.0,52,0.00,,,0.00,meteohub,2013-11-23 14:52:00,
2013-11-23 07:57:00,21.6,6.3,24.46,South,180,23.0,23.0,51,0.00,,,0.00,meteohub,2013-11-23 14:57:00,
2013-11-23 08:02:00,21.9,6.1,24.46,South,180,23.0,23.0,50,0.00,,,0.00,meteohub,2013-11-23 15:02:00,
2013-11-23 08:07:00,21.9,6.1,24.46,South,180,23.0,23.0,50,0.00,,,0.00,meteohub,2013-11-23 15:07:00,
2013-11-23 08:12:00,22.1,5.9,24.46,South,180,21.0,23.0,49,0.00,,,0.00,meteohub,2013-11-23 15:12:00,
2013-11-23 08:17:00,22.1,6.8,24.46,South,180,22.0,23.0,51,0.00,,,0.00,meteohub,2013-11-23 15:17:00,
2013-11-23 08:22:00,22.3,6.4,24.46,South,180,21.0,23.0,50,0.00,,,0.00,meteohub,2013-11-23 15:22:00,
2013-11-23 08:27:00,22.1,5.9,24.46,South,180,24.0,24.0,49,0.00,,,0.00,meteohub,2013-11-23 15:27:00,
2013-11-23 08:32:00,22.5,7.0,24.46,South,180,20.0,25.0,51,0.00,,,0.00,meteohub,2013-11-23 15:32:00,
2013-11-23 08:37:00,23.0,6.6,24.46,South,180,22.0,25.0,49,0.00,,,0.00,meteohub,2013-11-23 15:37:00,
2013-11-23 08:42:00,23.4,6.6,24.45,South,180,21.0,25.0,48,0.00,,,0.00,meteohub,2013-11-23 15:42:00,
2013-11-23 08:47:00,23.4,6.6,24.45,South,180,23.0,23.0,48,0.00,,,0.00,meteohub,2013-11-23 15:47:00,
2013-11-23 08:52:00,23.0,6.6,24.45,South,180,21.0,23.0,49,0.00,,,0.00,meteohub,2013-11-23 15:52:00,
2013-11-23 08:57:00,23.4,7.5,24.45,South,180,23.0,23.0,50,0.00,,,0.00,meteohub,2013-11-23 15:57:00,
2013-11-23 09:02:00,23.5,7.2,24.45,South,180,22.0,24.0,49,0.00,,,0.00,meteohub,2013-11-23 16:02:00,
2013-11-23 09:07:00,23.5,7.2,24.45,South,180,22.0,24.0,49,0.00,,,0.00,meteohub,2013-11-23 16:07:00,
2013-11-23 09:12:00,24.1,7.2,24.45,South,180,24.0,25.0,48,0.00,,,0.00,meteohub,2013-11-23 16:12:00,
2013-11-23 09:17:00,24.3,7.0,24.45,South,180,27.0,27.0,47,0.00,,,0.00,meteohub,2013-11-23 16:17:00,
2013-11-23 09:22:00,24.6,7.7,24.45,South,180,22.0,27.0,48,0.00,,,0.00,meteohub,2013-11-23 16:22:00,
2013-11-23 09:27:00,25.0,7.5,24.45,South,180,23.0,27.0,47,0.00,,,0.00,meteohub,2013-11-23 16:27:00,
2013-11-23 09:32:00,25.2,8.2,24.45,South,180,21.0,27.0,48,0.00,,,0.00,meteohub,2013-11-23 16:32:00,
2013-11-23 09:37:00,25.9,7.9,24.44,South,180,22.0,26.0,46,0.00,,,0.00,meteohub,2013-11-23 16:37:00,
2013-11-23 09:42:00,26.2,7.3,24.44,South,180,23.0,24.0,44,0.00,,,0.00,meteohub,2013-11-23 16:42:00,
2013-11-23 09:47:00,26.4,8.4,24.44,South,180,21.0,23.0,46,0.00,,,0.00,meteohub,2013-11-23 16:47:00,
2013-11-23 09:52:00,27.0,7.9,24.44,South,180,21.0,23.0,44,0.00,,,0.00,meteohub,2013-11-23 16:52:00,
2013-11-23 09:57:00,27.0,9.0,24.44,South,180,20.0,23.0,46,0.00,,,0.00,meteohub,2013-11-23 16:57:00,
2013-11-23 10:02:00,27.1,8.1,24.44,South,180,21.0,22.0,44,0.00,,,0.00,meteohub,2013-11-23 17:02:00,
2013-11-23 10:07:00,27.1,8.1,24.44,South,180,21.0,22.0,44,0.00,,,0.00,meteohub,2013-11-23 17:07:00,
2013-11-23 10:12:00,27.5,7.3,24.44,South,180,24.0,24.0,42,0.00,,,0.00,meteohub,2013-11-23 17:12:00,
2013-11-23 10:17:00,27.1,8.6,24.44,South,180,21.0,24.0,45,0.00,,,0.00,meteohub,2013-11-23 17:17:00,
2013-11-23 10:22:00,27.5,8.4,24.44,South,180,22.0,24.0,44,0.00,,,0.00,meteohub,2013-11-23 17:22:00,
2013-11-23 10:27:00,27.5,8.4,24.43,South,180,21.0,24.0,44,0.00,,,0.00,meteohub,2013-11-23 17:27:00,
2013-11-23 10:32:00,27.3,8.2,24.44,South,180,23.0,24.0,44,0.00,,,0.00,meteohub,2013-11-23 17:32:00,
2013-11-23 10:37:00,28.0,9.5,24.43,South,180,23.0,24.0,45,0.00,,,0.00,meteohub,2013-11-23 17:37:00,
2013-11-23 10:42:00,28.2,10.0,24.43,South,180,22.0,24.0,46,0.00,,,0.00,meteohub,2013-11-23 17:42:00,
2013-11-23 10:47:00,28.0,9.0,24.43,South,180,23.0,24.0,44,0.00,,,0.00,meteohub,2013-11-23 17:47:00,
2013-11-23 10:52:00,28.2,9.7,24.43,South,180,23.0,24.0,45,0.00,,,0.00,meteohub,2013-11-23 17:52:00,
2013-11-23 10:57:00,28.9,10.2,24.43,South,180,22.0,24.0,45,0.00,,,0.00,meteohub,2013-11-23 17:57:00,
2013-11-23 11:02:00,29.3,9.5,24.43,South,180,25.0,25.0,43,0.00,,,0.00,meteohub,2013-11-23 18:02:00,
2013-11-23 11:07:00,29.3,9.5,24.43,South,180,25.0,25.0,43,0.00,,,0.00,meteohub,2013-11-23 18:07:00,
2013-11-23 11:12:00,30.0,9.7,24.44,South,180,19.0,25.0,42,0.00,,,0.00,meteohub,2013-11-23 18:12:00,
2013-11-23 11:17:00,30.2,10.4,24.43,South,180,21.0,25.0,43,0.00,,,0.00,meteohub,2013-11-23 18:17:00,
2013-11-23 11:22:00,30.9,9.5,24.43,South,180,19.0,25.0,40,0.00,,,0.00,meteohub,2013-11-23 18:22:00,
2013-11-23 11:27:00,30.9,9.5,24.43,South,180,18.0,22.0,40,0.00,,,0.00,meteohub,2013-11-23 18:27:00,
2013-11-23 11:32:00,31.1,9.0,24.43,South,180,18.0,22.0,39,0.00,,,0.00,meteohub,2013-11-23 18:32:00,
2013-11-23 11:37:00,31.1,9.0,24.43,South,180,21.0,21.0,39,0.00,,,0.00,meteohub,2013-11-23 18:37:00,
2013-11-23 11:42:00,31.3,9.1,24.43,South,180,19.0,21.0,39,0.00,,,0.00,meteohub,2013-11-23 18:42:00,
2013-11-23 11:47:00,31.5,9.3,24.43,South,180,19.0,23.0,39,0.00,,,0.00,meteohub,2013-11-23 18:47:00,
2013-11-23 11:52:00,31.8,10.8,24.42,South,180,21.0,23.0,41,0.00,,,0.00,meteohub,2013-11-23 18:52:00,
2013-11-23 11:57:00,32.4,10.2,24.42,South,180,19.0,23.0,39,0.00,,,0.00,meteohub,2013-11-23 18:57:00,
2013-11-23 12:02:00,32.4,10.2,24.42,South,180,19.0,21.0,39,0.00,,,0.00,meteohub,2013-11-23 19:02:00,
2013-11-23 12:07:00,32.4,10.2,24.41,South,180,19.0,21.0,39,0.00,,,0.00,meteohub,2013-11-23 19:07:00,
2013-11-23 12:12:00,32.7,11.1,24.42,South,180,19.0,24.0,40,0.00,,,0.00,meteohub,2013-11-23 19:12:00,
2013-11-23 12:17:00,33.3,9.9,24.41,South,180,22.0,24.0,37,0.00,,,0.00,meteohub,2013-11-23 19:17:00,
2013-11-23 12:22:00,33.1,10.2,24.40,South,180,26.0,26.0,38,0.00,,,0.00,meteohub,2013-11-23 19:22:00,
2013-11-23 12:27:00,33.1,10.2,24.41,South,180,24.0,26.0,38,0.00,,,0.00,meteohub,2013-11-23 19:27:00,
2013-11-23 12:32:00,33.3,10.9,24.40,South,180,25.0,27.0,39,0.00,,,0.00,meteohub,2013-11-23 19:32:00,
2013-11-23 12:37:00,33.3,11.5,24.41,South,180,20.0,27.0,40,0.00,,,0.00,meteohub,2013-11-23 19:37:00,
2013-11-23 12:42:00,33.8,10.9,24.40,South,180,23.0,27.0,38,0.00,,,0.00,meteohub,2013-11-23 19:42:00,
2013-11-23 12:47:00,34.5,11.5,24.40,South,180,20.0,26.0,38,0.00,,,0.00,meteohub,2013-11-23 19:47:00,
2013-11-23 12:52:00,34.5,11.5,24.40,South,180,21.0,24.0,38,0.00,,,0.00,meteohub,2013-11-23 19:52:00,
2013-11-23 12:57:00,34.2,11.8,24.40,South,180,17.0,24.0,39,0.00,,,0.00,meteohub,2013-11-23 19:57:00,
2013-11-23 13:02:00,34.2,11.8,24.40,South,180,18.0,21.0,39,0.00,,,0.00,meteohub,2013-11-23 20:02:00,
2013-11-23 13:07:00,34.2,11.8,24.39,South,180,18.0,21.0,39,0.00,,,0.00,meteohub,2013-11-23 20:07:00,
2013-11-23 13:12:00,34.9,11.3,24.39,SE,135,17.0,21.0,37,0.00,,,0.00,meteohub,2013-11-23 20:12:00,
2013-11-23 13:17:00,35.1,12.0,24.39,South,180,19.0,19.0,38,0.00,,,0.00,meteohub,2013-11-23 20:17:00,
2013-11-23 13:22:00,35.4,11.7,24.39,South,180,18.0,19.0,37,0.00,,,0.00,meteohub,2013-11-23 20:22:00,
2013-11-23 13:27:00,35.4,11.7,24.39,South,180,16.0,19.0,37,0.00,,,0.00,meteohub,2013-11-23 20:27:00,
2013-11-23 13:32:00,36.0,11.7,24.39,South,180,17.0,19.0,36,0.00,,,0.00,meteohub,2013-11-23 20:32:00,
2013-11-23 13:37:00,36.0,12.2,24.38,South,180,21.0,21.0,37,0.00,,,0.00,meteohub,2013-11-23 20:37:00,
2013-11-23 13:42:00,36.0,11.7,24.38,South,180,21.0,21.0,36,0.00,,,0.00,meteohub,2013-11-23 20:42:00,
2013-11-23 13:47:00,36.0,12.7,24.38,South,180,21.0,21.0,38,0.00,,,0.00,meteohub,2013-11-23 20:47:00,
2013-11-23 13:52:00,35.8,12.0,24.37,South,180,18.0,23.0,37,0.00,,,0.00,meteohub,2013-11-23 20:52:00,
2013-11-23 13:57:00,35.6,11.8,24.37,South,180,20.0,23.0,37,0.00,,,0.00,meteohub,2013-11-23 20:57:00,
2013-11-23 14:02:00,35.6,12.6,24.37,South,180,23.0,23.0,38,0.00,,,0.00,meteohub,2013-11-23 21:02:00,
2013-11-23 14:07:00,35.6,12.6,24.36,South,180,23.0,23.0,38,0.00,,,0.00,meteohub,2013-11-23 21:07:00,
2013-11-23 14:12:00,35.8,12.0,24.37,SE,135,21.0,23.0,37,0.00,,,0.00,meteohub,2013-11-23 21:12:00,
2013-11-23 14:17:00,35.4,11.7,24.36,South,180,23.0,23.0,37,0.00,,,0.00,meteohub,2013-11-23 21:17:00,
2013-11-23 14:22:00,35.6,12.6,24.36,South,180,19.0,23.0,38,0.00,,,0.00,meteohub,2013-11-23 21:22:00,
2013-11-23 14:27:00,36.1,12.9,24.35,SSE,158,19.0,23.0,38,0.00,,,0.00,meteohub,2013-11-23 21:27:00,
2013-11-23 14:32:00,34.9,13.6,24.36,SE,135,20.0,23.0,41,0.00,,,0.00,meteohub,2013-11-23 21:32:00,
2013-11-23 14:37:00,34.3,12.0,24.36,SE,135,16.0,27.0,39,0.00,,,0.00,meteohub,2013-11-23 21:37:00,
2013-11-23 14:42:00,35.1,12.0,24.36,SE,135,14.0,27.0,38,0.00,,,0.00,meteohub,2013-11-23 21:42:00,
2013-11-23 14:47:00,35.6,12.6,24.36,SE,135,13.0,27.0,38,0.00,,,0.00,meteohub,2013-11-23 21:47:00,
2013-11-23 14:52:00,35.2,11.5,24.36,SE,135,15.0,21.0,37,0.00,,,0.00,meteohub,2013-11-23 21:52:00,
2013-11-23 14:57:00,35.1,12.0,24.36,SSE,158,14.0,17.0,38,0.00,,,0.00,meteohub,2013-11-23 21:57:00,
2013-11-23 15:02:00,35.1,12.0,24.35,SSE,158,14.0,17.0,38,0.00,,,0.00,meteohub,2013-11-23 22:02:00,
2013-11-23 15:07:00,35.1,12.0,24.35,SSE,158,14.0,17.0,38,0.00,,,0.00,meteohub,2013-11-23 22:07:00,
2013-11-23 15:12:00,34.9,11.8,24.35,SE,135,14.0,16.0,38,0.00,,,0.00,meteohub,2013-11-23 22:12:00,
2013-11-23 15:17:00,34.9,11.8,24.35,South,180,14.0,16.0,38,0.00,,,0.00,meteohub,2013-11-23 22:17:00,
2013-11-23 15:22:00,35.2,12.2,24.35,SSE,158,13.0,16.0,38,0.00,,,0.00,meteohub,2013-11-23 22:22:00,
2013-11-23 15:27:00,35.4,11.1,24.35,South,180,17.0,17.0,36,0.00,,,0.00,meteohub,2013-11-23 22:27:00,
2013-11-23 15:32:00,35.6,11.3,24.35,South,180,17.0,18.0,36,0.00,,,0.00,meteohub,2013-11-23 22:32:00,
2013-11-23 15:37:00,35.1,11.5,24.35,SSE,158,17.0,18.0,37,0.00,,,0.00,meteohub,2013-11-23 22:37:00,
2013-11-23 15:42:00,34.7,12.2,24.35,SSE,158,14.0,18.0,39,0.00,,,0.00,meteohub,2013-11-23 22:42:00,
2013-11-23 15:47:00,34.0,11.7,24.35,SSE,158,12.0,18.0,39,0.00,,,0.00,meteohub,2013-11-23 22:47:00,
2013-11-23 15:52:00,33.6,11.3,24.35,South,180,14.0,18.0,39,0.00,,,0.00,meteohub,2013-11-23 22:52:00,
2013-11-23 15:57:00,33.4,11.7,24.35,SSE,158,12.0,17.0,40,0.00,,,0.00,meteohub,2013-11-23 22:57:00,
2013-11-23 16:02:00,33.3,11.5,24.35,SE,135,11.0,15.0,40,0.00,,,0.00,meteohub,2013-11-23 23:02:00,
2013-11-23 16:07:00,33.3,11.5,24.35,SE,135,11.0,15.0,40,0.00,,,0.00,meteohub,2013-11-23 23:07:00,
2013-11-23 16:12:00,33.3,10.9,24.34,South,180,12.0,13.0,39,0.00,,,0.00,meteohub,2013-11-23 23:12:00,
2013-11-23 16:17:00,33.1,10.8,24.34,South,180,10.0,12.0,39,0.00,,,0.00,meteohub,2013-11-23 23:17:00,
2013-11-23 16:22:00,33.3,10.9,24.34,South,180,11.0,12.0,39,0.00,,,0.00,meteohub,2013-11-23 23:22:00,
2013-11-23 16:27:00,33.4,10.6,24.34,South,180,11.0,13.0,38,0.00,,,0.00,meteohub,2013-11-23 23:27:00,
2013-11-23 16:32:00,33.3,10.9,24.34,South,180,15.0,15.0,39,0.00,,,0.00,meteohub,2013-11-23 23:32:00,
2013-11-23 16:37:00,32.9,10.6,24.33,South,180,15.0,15.0,39,0.00,,,0.00,meteohub,2013-11-23 23:37:00,
2013-11-23 16:42:00,32.4,10.8,24.33,South,180,17.0,17.0,40,0.00,,,0.00,meteohub,2013-11-23 23:42:00,
2013-11-23 16:47:00,32.2,10.6,24.33,South,180,13.0,17.0,40,0.00,,,0.00,meteohub,2013-11-23 23:47:00,
2013-11-23 16:52:00,32.4,10.2,24.34,SE,135,13.0,17.0,39,0.00,,,0.00,meteohub,2013-11-23 23:52:00,
2013-11-23 16:57:00,31.6,10.0,24.33,SE,135,11.0,17.0,40,0.00,,,0.00,meteohub,2013-11-23 23:57:00,
2013-11-23 17:02:00,30.9,10.6,24.34,SE,135,11.0,14.0,42,0.00,,,0.00,meteohub,2013-11-24 00:02:00,
2013-11-23 17:07:00,30.9,10.6,24.33,SE,135,11.0,13.0,42,0.00,,,0.00,meteohub,2013-11-24 00:07:00,
2013-11-23 17:12:00,30.7,10.4,24.33,South,180,14.0,14.0,42,0.00,,,0.00,meteohub,2013-11-24 00:12:00,
2013-11-23 17:17:00,30.6,10.2,24.32,South,180,11.0,14.0,42,0.00,,,0.00,meteohub,2013-11-24 00:17:00,
2013-11-23 17:22:00,30.6,10.2,24.32,South,180,12.0,14.0,42,0.00,,,0.00,meteohub,2013-11-24 00:22:00,
2013-11-23 17:27:00,30.4,10.0,24.32,South,180,10.0,14.0,42,0.00,,,0.00,meteohub,2013-11-24 00:27:00,
2013-11-23 17:32:00,30.2,9.9,24.32,South,180,9.0,13.0,42,0.00,,,0.00,meteohub,2013-11-24 00:32:00,
2013-11-23 17:37:00,30.6,9.7,24.32,South,180,11.0,13.0,41,0.00,,,0.00,meteohub,2013-11-24 00:37:00,
2013-11-23 17:42:00,31.6,9.5,24.32,South,180,13.0,13.0,39,0.00,,,0.00,meteohub,2013-11-24 00:42:00,
2013-11-23 17:47:00,32.2,9.5,24.32,South,180,14.0,16.0,38,0.00,,,0.00,meteohub,2013-11-24 00:47:00,
2013-11-23 17:52:00,31.6,9.0,24.32,South,180,14.0,16.0,38,0.00,,,0.00,meteohub,2013-11-24 00:52:00,
2013-11-23 17:57:00,31.3,9.1,24.31,South,180,14.0,16.0,39,0.00,,,0.00,meteohub,2013-11-24 00:57:00,
2013-11-23 18:02:00,31.6,9.0,24.31,South,180,14.0,15.0,38,0.00,,,0.00,meteohub,2013-11-24 01:02:00,
2013-11-23 18:07:00,31.6,9.0,24.31,South,180,14.0,15.0,38,0.00,,,0.00,meteohub,2013-11-24 01:07:00,
2013-11-23 18:12:00,31.3,9.1,24.31,South,180,14.0,15.0,39,0.00,,,0.00,meteohub,2013-11-24 01:12:00,
2013-11-23 18:17:00,31.1,9.0,24.31,South,180,15.0,15.0,39,0.00,,,0.00,meteohub,2013-11-24 01:17:00,
2013-11-23 18:22:00,31.3,9.1,24.30,South,180,14.0,15.0,39,0.00,,,0.00,meteohub,2013-11-24 01:22:00,
2013-11-23 18:27:00,31.5,8.8,24.31,South,180,11.0,15.0,38,0.00,,,0.00,meteohub,2013-11-24 01:27:00,
2013-11-23 18:32:00,31.5,9.3,24.30,South,180,15.0,15.0,39,0.00,,,0.00,meteohub,2013-11-24 01:32:00,
2013-11-23 18:37:00,31.3,8.6,24.30,South,180,14.0,15.0,38,0.00,,,0.00,meteohub,2013-11-24 01:37:00,
2013-11-23 18:42:00,31.5,9.3,24.30,South,180,15.0,15.0,39,0.00,,,0.00,meteohub,2013-11-24 01:42:00,
2013-11-23 18:47:00,31.1,9.0,24.30,South,180,16.0,17.0,39,0.00,,,0.00,meteohub,2013-11-24 01:47:00,
2013-11-23 18:52:00,31.1,9.0,24.30,South,180,17.0,17.0,39,0.00,,,0.00,meteohub,2013-11-24 01:52:00,
2013-11-23 18:57:00,31.1,9.7,24.30,South,180,17.0,17.0,40,0.00,,,0.00,meteohub,2013-11-24 01:57:00,
2013-11-23 19:02:00,30.9,9.5,24.30,South,180,17.0,18.0,40,0.00,,,0.00,meteohub,2013-11-24 02:02:00,
2013-11-23 19:07:00,30.9,9.5,24.30,South,180,17.0,18.0,40,0.00,,,0.00,meteohub,2013-11-24 02:07:00,
2013-11-23 19:12:00,31.1,9.7,24.30,South,180,17.0,18.0,40,0.00,,,0.00,meteohub,2013-11-24 02:12:00,
2013-11-23 19:17:00,30.4,9.5,24.29,South,180,17.0,17.0,41,0.00,,,0.00,meteohub,2013-11-24 02:17:00,
2013-11-23 19:22:00,29.8,10.0,24.29,South,180,17.0,18.0,43,0.00,,,0.00,meteohub,2013-11-24 02:22:00,
2013-11-23 19:27:00,29.5,9.7,24.29,South,180,17.0,18.0,43,0.00,,,0.00,meteohub,2013-11-24 02:27:00,
2013-11-23 19:32:00,29.7,9.9,24.29,South,180,17.0,18.0,43,0.00,,,0.00,meteohub,2013-11-24 02:32:00,
2013-11-23 19:37:00,30.0,9.7,24.29,South,180,15.0,18.0,42,0.00,,,0.00,meteohub,2013-11-24 02:37:00,
2013-11-23 19:42:00,30.0,10.2,24.29,South,180,17.0,17.0,43,0.00,,,0.00,meteohub,2013-11-24 02:42:00,
2013-11-23 19:47:00,30.0,9.7,24.29,South,180,17.0,17.0,42,0.00,,,0.00,meteohub,2013-11-24 02:47:00,
2013-11-23 19:52:00,29.7,9.9,24.28,South,180,16.0,18.0,43,0.00,,,0.00,meteohub,2013-11-24 02:52:00,
2013-11-23 19:57:00,29.8,9.5,24.28,South,180,18.0,19.0,42,0.00,,,0.00,meteohub,2013-11-24 02:57:00,
2013-11-23 20:02:00,29.8,9.5,24.29,South,180,15.0,19.0,42,0.00,,,0.00,meteohub,2013-11-24 03:02:00,
2013-11-23 20:07:00,29.8,9.5,24.28,South,180,15.0,18.0,42,0.00,,,0.00,meteohub,2013-11-24 03:07:00,
2013-11-23 20:12:00,29.5,10.2,24.28,South,180,16.0,18.0,44,0.00,,,0.00,meteohub,2013-11-24 03:12:00,
2013-11-23 20:17:00,29.1,9.9,24.28,South,180,18.0,18.0,44,0.00,,,0.00,meteohub,2013-11-24 03:17:00,
2013-11-23 20:22:00,29.3,10.0,24.28,South,180,20.0,20.0,44,0.00,,,0.00,meteohub,2013-11-24 03:22:00,
2013-11-23 20:27:00,29.3,9.5,24.27,South,180,17.0,20.0,43,0.00,,,0.00,meteohub,2013-11-24 03:27:00,
2013-11-23 20:32:00,29.8,9.5,24.28,SW,225,14.0,20.0,42,0.00,,,0.00,meteohub,2013-11-24 03:32:00,
2013-11-23 20:37:00,30.7,8.8,24.27,South,180,16.0,20.0,39,0.00,,,0.00,meteohub,2013-11-24 03:37:00,
2013-11-23 20:42:00,30.4,9.0,24.27,South,180,14.0,18.0,40,0.00,,,0.00,meteohub,2013-11-24 03:42:00,
2013-11-23 20:47:00,30.6,9.1,24.27,South,180,15.0,16.0,40,0.00,,,0.00,meteohub,2013-11-24 03:47:00,
2013-11-23 20:52:00,30.4,9.0,24.27,South,180,16.0,17.0,40,0.00,,,0.00,meteohub,2013-11-24 03:52:00,
2013-11-23 20:57:00,29.8,9.0,24.27,South,180,14.0,20.0,41,0.00,,,0.00,meteohub,2013-11-24 03:57:00,
2013-11-23 21:02:00,30.0,9.1,24.27,South,180,15.0,20.0,41,0.00,,,0.00,meteohub,2013-11-24 04:02:00,
2013-11-23 21:07:00,30.0,9.1,24.27,South,180,15.0,20.0,41,0.00,,,0.00,meteohub,2013-11-24 04:07:00,
2013-11-23 21:12:00,30.2,9.3,24.27,South,180,15.0,16.0,41,0.00,,,0.00,meteohub,2013-11-24 04:12:00,
2013-11-23 21:17:00,30.0,9.1,24.27,SSW,203,15.0,17.0,41,0.00,,,0.00,meteohub,2013-11-24 04:17:00,
2013-11-23 21:22:00,30.4,8.4,24.27,South,180,16.0,17.0,39,0.00,,,0.00,meteohub,2013-11-24 04:22:00,
2013-11-23 21:27:00,30.6,8.6,24.27,South,180,16.0,17.0,39,0.00,,,0.00,meteohub,2013-11-24 04:27:00,
2013-11-23 21:32:00,30.6,8.6,24.27,South,180,17.0,17.0,39,0.00,,,0.00,meteohub,2013-11-24 04:32:00,
2013-11-23 21:37:00,30.6,8.6,24.26,South,180,16.0,17.0,39,0.00,,,0.00,meteohub,2013-11-24 04:37:00,
2013-11-23 21:42:00,30.9,8.2,24.26,South,180,14.0,17.0,38,0.00,,,0.00,meteohub,2013-11-24 04:42:00,
2013-11-23 21:47:00,31.1,8.4,24.26,South,180,11.0,17.0,38,0.00,,,0.00,meteohub,2013-11-24 04:47:00,
2013-11-23 21:52:00,31.1,8.4,24.26,South,180,11.0,16.0,38,0.00,,,0.00,meteohub,2013-11-24 04:52:00,
2013-11-23 21:57:00,32.2,7.5,24.26,South,180,14.0,14.0,35,0.00,,,0.00,meteohub,2013-11-24 04:57:00,
2013-11-23 22:02:00,32.4,7.7,24.26,SSW,203,12.0,17.0,35,0.00,,,0.00,meteohub,2013-11-24 05:02:00,
2013-11-23 22:07:00,32.4,7.7,24.26,SSW,203,12.0,17.0,35,0.00,,,0.00,meteohub,2013-11-24 05:07:00,
2013-11-23 22:12:00,32.5,7.3,24.26,South,180,15.0,17.0,34,0.00,,,0.00,meteohub,2013-11-24 05:12:00,
2013-11-23 22:17:00,32.0,8.1,24.26,South,180,15.0,17.0,36,0.00,,,0.00,meteohub,2013-11-24 05:17:00,
2013-11-23 22:22:00,31.6,8.4,24.25,South,180,15.0,17.0,37,0.00,,,0.00,meteohub,2013-11-24 05:22:00,
2013-11-23 22:27:00,31.1,7.9,24.25,South,180,17.0,17.0,37,0.00,,,0.00,meteohub,2013-11-24 05:27:00,
2013-11-23 22:32:00,31.6,8.4,24.25,SW,225,19.0,19.0,37,0.00,,,0.00,meteohub,2013-11-24 05:32:00,
2013-11-23 22:37:00,31.6,8.4,24.25,South,180,19.0,19.0,37,0.00,,,0.00,meteohub,2013-11-24 05:37:00,
2013-11-23 22:42:00,31.1,8.4,24.25,SW,225,19.0,21.0,38,0.00,,,0.00,meteohub,2013-11-24 05:42:00,
2013-11-23 22:47:00,30.9,8.8,24.25,SSW,203,17.0,22.0,39,0.00,,,0.00,meteohub,2013-11-24 05:47:00,
2013-11-23 22:52:00,30.6,8.6,24.25,South,180,19.0,22.0,39,0.00,,,0.00,meteohub,2013-11-24 05:52:00,
2013-11-23 22:57:00,30.6,8.6,24.25,SSW,203,17.0,22.0,39,0.00,,,0.00,meteohub,2013-11-24 05:57:00,
2013-11-23 23:02:00,30.6,8.6,24.25,South,180,16.0,21.0,39,0.00,,,0.00,meteohub,2013-11-24 06:02:00,
2013-11-23 23:07:00,30.6,8.6,24.24,South,180,16.0,20.0,39,0.00,,,0.00,meteohub,2013-11-24 06:07:00,
2013-11-23 23:12:00,31.1,8.4,24.24,South,180,16.0,19.0,38,0.00,,,0.00,meteohub,2013-11-24 06:12:00,
2013-11-23 23:17:00,31.3,8.6,24.24,South,180,15.0,17.0,38,0.00,,,0.00,meteohub,2013-11-24 06:17:00,
2013-11-23 23:22:00,31.3,8.1,24.24,South,180,15.0,17.0,37,0.00,,,0.00,meteohub,2013-11-24 06:22:00,
2013-11-23 23:27:00,32.0,8.1,24.24,South,180,18.0,18.0,36,0.00,,,0.00,meteohub,2013-11-24 06:27:00,
2013-11-23 23:32:00,31.6,7.7,24.24,South,180,14.0,18.0,36,0.00,,,0.00,meteohub,2013-11-24 06:32:00,
2013-11-23 23:37:00,31.5,8.2,24.24,South,180,12.0,18.0,37,0.00,,,0.00,meteohub,2013-11-24 06:37:00,
2013-11-23 23:42:00,31.3,8.1,24.24,South,180,17.0,18.0,37,0.00,,,0.00,meteohub,2013-11-24 06:42:00,
2013-11-23 23:47:00,30.9,8.2,24.24,South,180,15.0,17.0,38,0.00,,,0.00,meteohub,2013-11-24 06:47:00,
2013-11-23 23:52:00,30.7,8.8,24.23,South,180,15.0,17.0,39,0.00,,,0.00,meteohub,2013-11-24 06:52:00,
2013-11-23 23:57:00,30.6,8.6,24.23,South,180,15.0,17.0,39,0.00,,,0.00,meteohub,2013-11-24 06:57:00,